User: anonymous   Login
Location: Unspecified
(0.0000°N, 0.0000°E)
Time: 11:22:28
(UTC+00:00)
Language:

USA 224 - Orbit

View from above orbital plane
View from above orbital plane
View from above satellite
View from above satellite

Ground track
Ground track

The orbit data is extracted from the following two-line orbital elements,

1 37348U 11002A   18229.97250523 0.00003400  00000-0  31949-4 0    04
2 37348  97.8979 340.5042 0530000 270.3013  89.6986 14.78886231    02
Epoch (UTC): 17 August 2018 23:20:24
Eccentricity: 0.0530000
inclination: 97.8979°
perigee height: 261 km
apogee height: 1004 km
right ascension of ascending node: 340.5042°
argument of perigee: 270.3013°
revolutions per day: 14.78886231
mean anomaly at epoch: 89.6986°
orbit number at epoch: 0

The dashed part of the orbit path shows where the satellite is in the earth's shadow,  

DLR